Track COSMOS 2522 (GLONASS) now! COSMOS 2522 (GLONASS) is classified as:
1 42939U 17055A 19047.32097084 .00000055 00000-0 00000+0 0 9998 2 42939 64.5534 283.9179 0006164 257.4809 301.6424 2.13102023 10912